Air Quality Table

TIMESTAMP NO2 SO2 PM10 PM2.5 CO TEMP HUM AIRPRES WS WD NO
2021-11-30 00:00 0.9 µg/m3 0.03 µg/m3 7.72 µg/m3 2.58 µg/m3 0.14 mg/m3 12.69 °C 65.93 % 1,011.73 mbar 10.66 m/s 217.89 Deg 0.47 µg/m3
2021-11-29 23:00 1.31 µg/m3 0.03 µg/m3 7.73 µg/m3 2.59 µg/m3 0.15 mg/m3 11.5 °C 72.1 % 1,011.52 mbar 10.1 m/s 238.6 Deg 0.18 µg/m3
2021-11-29 22:00 2.1 µg/m3 0.02 µg/m3 8.46 µg/m3 3.14 µg/m3 0.15 mg/m3 11.9 °C 72.56 % 1,010.66 mbar 9.11 m/s 247.06 Deg 0.39 µg/m3
2021-11-29 21:00 4.18 µg/m3 0.07 µg/m3 8.87 µg/m3 3.42 µg/m3 0.16 mg/m3 12.16 °C 73.04 % 1,009.67 mbar 8.07 m/s 261.22 Deg 0.72 µg/m3
2021-11-29 20:00 3.58 µg/m3 0.1 µg/m3 9.2 µg/m3 3.1 µg/m3 0.13 mg/m3 14.35 °C 55.56 % 1,008.58 mbar 12.4 m/s 231.71 Deg 0.68 µg/m3
2021-11-29 19:00 5.8 µg/m3 0.18 µg/m3 9.93 µg/m3 3.28 µg/m3 0.12 mg/m3 15.3 °C 49.02 % 1,007.48 mbar 13.46 m/s 224.18 Deg 1.79 µg/m3
2021-11-29 18:00 13.36 µg/m3 0.16 µg/m3 10.36 µg/m3 3.19 µg/m3 0.19 mg/m3 15.29 °C 57.27 % 1,006.42 mbar 12.41 m/s 222.68 Deg 6.12 µg/m3
2021-11-29 17:00 11.64 µg/m3 0.06 µg/m3 7.75 µg/m3 2.58 µg/m3 0.18 mg/m3 13.76 °C 70.38 % 1,006.00 mbar 11.76 m/s 214.08 Deg 1.34 µg/m3
2021-11-29 16:00 8.91 µg/m3 0.13 µg/m3 10.33 µg/m3 3.17 µg/m3 0.14 mg/m3 14.89 °C 61.26 % 1,005.17 mbar 13.13 m/s 212.75 Deg 1.44 µg/m3
2021-11-29 15:00 9.73 µg/m3 0.19 µg/m3 12.06 µg/m3 3.61 µg/m3 0.13 mg/m3 16.07 °C 55.39 % 1,004.53 mbar 13.95 m/s 207.75 Deg 1.79 µg/m3
2021-11-29 14:00 8.89 µg/m3 0.15 µg/m3 12.14 µg/m3 3.38 µg/m3 0.14 mg/m3 15.84 °C 56.67 % 1,004.54 mbar 13.95 m/s 204.82 Deg 2.19 µg/m3
2021-11-29 13:00 12.54 µg/m3 0.2 µg/m3 10.27 µg/m3 3.04 µg/m3 0.13 mg/m3 15.87 °C 55.24 % 1,005.34 mbar 13.7 m/s 202 Deg 5.76 µg/m3
2021-11-29 12:00 16.36 µg/m3 0.15 µg/m3 10.28 µg/m3 3.08 µg/m3 0.14 mg/m3 16.03 °C 52.73 % 1,005.90 mbar 13.22 m/s 206.93 Deg 3.51 µg/m3
2021-11-29 11:00 10.96 µg/m3 0.12 µg/m3 9.7 µg/m3 3.01 µg/m3 0.15 mg/m3 15.88 °C 52.09 % 1,006.17 mbar 12.63 m/s 203.43 Deg 3 µg/m3
2021-11-29 10:00 12.78 µg/m3 0.19 µg/m3 9.15 µg/m3 2.8 µg/m3 0.15 mg/m3 15.35 °C 52.26 % 1,006.36 mbar 11.43 m/s 205.28 Deg 3.51 µg/m3
2021-11-29 09:00 21.87 µg/m3 0.32 µg/m3 9.3 µg/m3 3.13 µg/m3 0.15 mg/m3 15.07 °C 53.43 % 1,006.26 mbar 10.73 m/s 208.33 Deg 5.39 µg/m3
2021-11-29 08:00 21.19 µg/m3 0.21 µg/m3 9.47 µg/m3 3.18 µg/m3 0.16 mg/m3 14.8 °C 53.53 % 1,005.80 mbar 9.77 m/s 209.96 Deg 2.21 µg/m3
2021-11-29 07:00 21.66 µg/m3 0.35 µg/m3 8.67 µg/m3 2.66 µg/m3 0.17 mg/m3 14.96 °C 52.12 % 1,005.11 mbar 9.9 m/s 207.13 Deg 6.2 µg/m3
2021-11-29 06:00 15.09 µg/m3 0.29 µg/m3 7.8 µg/m3 2.51 µg/m3 0.15 mg/m3 14.89 °C 53.78 % 1,004.66 mbar 8.96 m/s 210.03 Deg 3.56 µg/m3
2021-11-29 05:00 2.84 µg/m3 0.01 µg/m3 7.41 µg/m3 2.3 µg/m3 0.13 mg/m3 14.69 °C 57.63 % 1,004.41 mbar 8.59 m/s 215.64 Deg 0.33 µg/m3
2021-11-29 04:00 1.73 µg/m3 0.02 µg/m3 7.48 µg/m3 2.35 µg/m3 0.09 mg/m3 14.4 °C 62.4 % 1,004.11 mbar 7.81 m/s 228.13 Deg 0.48 µg/m3
2021-11-29 03:00 2.56 µg/m3 -0.01 µg/m3 7.62 µg/m3 2.43 µg/m3 0.06 mg/m3 14.89 °C 61 % 1,003.83 mbar 7.39 m/s 212.12 Deg 1.16 µg/m3
2021-11-29 02:00 2.67 µg/m3 -0.04 µg/m3 7.77 µg/m3 2.56 µg/m3 0.08 mg/m3 14.33 °C 69.47 % 1,003.69 mbar 6.13 m/s 221.07 Deg 0.17 µg/m3
2021-11-29 01:00 3.04 µg/m3 -0.01 µg/m3 7.95 µg/m3 2.72 µg/m3 0.09 mg/m3 14.2 °C 77.58 % 1,003.87 mbar 5.41 m/s 237.97 Deg 0.26 µg/m3
2021-11-29 00:00 6.05 µg/m3 0 µg/m3 7.98 µg/m3 2.72 µg/m3 0.1 mg/m3 14.79 °C 72.48 % 1,003.75 mbar 5.06 m/s 225.32 Deg 0.41 µg/m3
2021-11-28 23:00 37.4 µg/m3 0.39 µg/m3 11.46 µg/m3 5.12 µg/m3 0.13 mg/m3 15.27 °C 70.15 % 1,003.65 mbar 4.35 m/s 213.93 Deg 27.11 µg/m3
2021-11-28 22:00 7.09 µg/m3 0 µg/m3 9.66 µg/m3 3.63 µg/m3 0.1 mg/m3 15.55 °C 67.26 % 1,003.66 mbar 4.89 m/s 225.89 Deg 0.45 µg/m3
2021-11-28 21:00 14.83 µg/m3 -0.01 µg/m3 11.66 µg/m3 4.47 µg/m3 0.11 mg/m3 16.06 °C 65.74 % 1,003.11 mbar 5.2 m/s 208.93 Deg 0.69 µg/m3
2021-11-28 20:00 9.91 µg/m3 -0.02 µg/m3 10.41 µg/m3 4.01 µg/m3 0.11 mg/m3 16.2 °C 64.64 % 1,002.84 mbar 5.43 m/s 217.14 Deg 0.42 µg/m3
2021-11-28 19:00 9.1 µg/m3 -0.01 µg/m3 9.02 µg/m3 3.43 µg/m3 0.13 mg/m3 15.6 °C 76.69 % 1,002.37 mbar 5.67 m/s 212.53 Deg 0.51 µg/m3
2021-11-28 18:00 8.12 µg/m3 0.01 µg/m3 9.65 µg/m3 3.62 µg/m3 0.15 mg/m3 15.61 °C 83.1 % 1,001.68 mbar 6.67 m/s 211.27 Deg 0.71 µg/m3
2021-11-28 17:00 7.62 µg/m3 -0.01 µg/m3 8.43 µg/m3 2.92 µg/m3 0.15 mg/m3 15.89 °C 86.52 % 1,001.25 mbar 6.53 m/s 215.08 Deg 0.31 µg/m3
2021-11-28 16:00 11.39 µg/m3 0.02 µg/m3 8.1 µg/m3 2.84 µg/m3 0.14 mg/m3 17.5 °C 77.03 % 1,000.84 mbar 5.94 m/s 197.48 Deg 0.99 µg/m3
2021-11-28 15:00 9.26 µg/m3 0.01 µg/m3 8.06 µg/m3 2.82 µg/m3 0.15 mg/m3 17.32 °C 76.43 % 1,000.88 mbar 6.33 m/s 201.45 Deg 0.56 µg/m3
2021-11-28 14:00 18.06 µg/m3 0.08 µg/m3 8.14 µg/m3 2.87 µg/m3 0.16 mg/m3 16.97 °C 78.45 % 1,001.41 mbar 5.86 m/s 197.73 Deg 2.07 µg/m3
2021-11-28 13:00 45.82 µg/m3 0.33 µg/m3 9.1 µg/m3 3.6 µg/m3 0.18 mg/m3 16.15 °C 83.21 % 1,001.94 mbar 5.42 m/s 184.13 Deg 29.39 µg/m3
2021-11-28 12:00 48.66 µg/m3 0.38 µg/m3 10 µg/m3 4.26 µg/m3 0.21 mg/m3 15.13 °C 91.56 % 1,004.09 mbar 4.85 m/s 179.25 Deg 26.66 µg/m3
2021-11-28 11:00 55.09 µg/m3 0.54 µg/m3 10.92 µg/m3 4.94 µg/m3 0.19 mg/m3 14.39 °C 91.88 % 1,004.87 mbar 4.74 m/s 180.13 Deg 44.32 µg/m3
2021-11-28 10:00 14.24 µg/m3 0.06 µg/m3 9.21 µg/m3 3.62 µg/m3 0.19 mg/m3 13.8 °C 89.95 % 1,005.30 mbar 6.02 m/s 188.69 Deg 1.55 µg/m3
2021-11-28 09:00 20.95 µg/m3 0.03 µg/m3 9.03 µg/m3 3.53 µg/m3 0.16 mg/m3 14.09 °C 85.75 % 1,005.57 mbar 6.08 m/s 195.73 Deg 1.34 µg/m3
2021-11-28 08:00 8.91 µg/m3 -0.01 µg/m3 9.03 µg/m3 3.49 µg/m3 0.16 mg/m3 14.39 °C 82.17 % 1,005.02 mbar 5.96 m/s 200.43 Deg 0.5 µg/m3
2021-11-28 07:00 8.1 µg/m3 0.03 µg/m3 8.73 µg/m3 3.28 µg/m3 0.15 mg/m3 14.71 °C 79.93 % 1,005.19 mbar 7.41 m/s 199.4 Deg 0.29 µg/m3
2021-11-28 06:00 9.96 µg/m3 0.01 µg/m3 8.81 µg/m3 3.19 µg/m3 0.13 mg/m3 15.88 °C 67.37 % 1,004.79 mbar 8.2 m/s 202.37 Deg 0.51 µg/m3
2021-11-28 05:00 7.75 µg/m3 -0.01 µg/m3 9.74 µg/m3 3.54 µg/m3 0.12 mg/m3 18.21 °C 59.32 % 1,004.52 mbar 9.22 m/s 205.2 Deg 1.47 µg/m3
2021-11-28 04:00 5.09 µg/m3 0.02 µg/m3 10.39 µg/m3 4 µg/m3 0.08 mg/m3 18.62 °C 60.21 % 1,004.29 mbar 8.53 m/s 199.15 Deg 0.45 µg/m3
2021-11-28 03:00 5.77 µg/m3 0.03 µg/m3 11.46 µg/m3 4.27 µg/m3 0.02 mg/m3 18.51 °C 56.69 % 1,004.48 mbar 7.56 m/s 203.17 Deg 0.18 µg/m3
2021-11-28 02:00 5.69 µg/m3 0.03 µg/m3 11.66 µg/m3 4.14 µg/m3 0.03 mg/m3 18.78 °C 58.16 % 1,004.81 mbar 8.37 m/s 198.17 Deg 0.38 µg/m3
2021-11-28 01:00 6.21 µg/m3 0.06 µg/m3 14.07 µg/m3 4.76 µg/m3 0.03 mg/m3 18.72 °C 59.99 % 1,005.36 mbar 8.53 m/s 199.56 Deg -0.04 µg/m3
2021-11-28 00:00 20.2 µg/m3 0.13 µg/m3 15.91 µg/m3 5.58 µg/m3 0.04 mg/m3 18.59 °C 58.09 % 1,004.97 mbar 6.62 m/s 198.83 Deg 2.59 µg/m3
2021-11-27 23:00 14.34 µg/m3 0.25 µg/m3 16.79 µg/m3 6.33 µg/m3 0.05 mg/m3 19.01 °C 57.24 % 1,005.29 mbar 6.25 m/s 198.74 Deg 0.53 µg/m3
2021-11-27 22:00 28.87 µg/m3 0.2 µg/m3 20.66 µg/m3 8.02 µg/m3 0.08 mg/m3 18.57 °C 59.73 % 1,005.76 mbar 3.96 m/s 193.27 Deg 0.57 µg/m3
2021-11-27 21:00 32.89 µg/m3 0.29 µg/m3 19.7 µg/m3 8.01 µg/m3 0.09 mg/m3 18.48 °C 55.86 % 1,005.98 mbar 4.71 m/s 202.13 Deg 10.07 µg/m3
2021-11-27 20:00 33 µg/m3 0.26 µg/m3 15.78 µg/m3 6.74 µg/m3 0.1 mg/m3 18.33 °C 60.06 % 1,005.70 mbar 4.78 m/s 209.08 Deg 13.4 µg/m3
2021-11-27 19:00 39.19 µg/m3 0.22 µg/m3 15.97 µg/m3 6.67 µg/m3 0.12 mg/m3 17.67 °C 63.3 % 1,005.21 mbar 3.27 m/s 211.93 Deg 11.8 µg/m3
2021-11-27 18:00 54.62 µg/m3 0.56 µg/m3 16.28 µg/m3 6.87 µg/m3 0.14 mg/m3 17.57 °C 63.23 % 1,004.62 mbar 3.64 m/s 202.8 Deg 34.46 µg/m3
2021-11-27 17:00 56.19 µg/m3 0.49 µg/m3 16.46 µg/m3 7.18 µg/m3 0.19 mg/m3 17.89 °C 65.34 % 1,004.00 mbar 3.51 m/s 216.23 Deg 34.8 µg/m3
2021-11-27 16:00 32.29 µg/m3 0.2 µg/m3 13.95 µg/m3 5.66 µg/m3 0.11 mg/m3 18.33 °C 62.93 % 1,003.18 mbar 3.57 m/s 239.33 Deg 13.75 µg/m3
2021-11-27 15:00 6.95 µg/m3 0.05 µg/m3 12.55 µg/m3 5.15 µg/m3 0.1 mg/m3 18.06 °C 65.52 % 1,002.61 mbar 4.23 m/s 259.65 Deg 1.18 µg/m3
2021-11-27 14:00 15.98 µg/m3 0.05 µg/m3 14.71 µg/m3 5.72 µg/m3 0.12 mg/m3 17.43 °C 68.6 % 1,002.10 mbar 2.7 m/s 275.25 Deg 4.47 µg/m3
2021-11-27 13:00 22.5 µg/m3 0.08 µg/m3 14.88 µg/m3 6.21 µg/m3 0.13 mg/m3 16.53 °C 75.13 % 1,002.67 mbar 1.89 m/s 302.62 Deg 5.59 µg/m3
2021-11-27 12:00 30.22 µg/m3 0.09 µg/m3 15.71 µg/m3 7.15 µg/m3 0.13 mg/m3 15.93 °C 79.24 % 1,003.40 mbar 1.72 m/s 313.87 Deg 5.22 µg/m3
2021-11-27 11:00 35.98 µg/m3 0.14 µg/m3 15.49 µg/m3 6.82 µg/m3 0.16 mg/m3 15.55 °C 79.35 % 1,004.35 mbar 1.85 m/s 305.09 Deg 7.77 µg/m3
2021-11-27 10:00 44.42 µg/m3 0.19 µg/m3 16.51 µg/m3 7.39 µg/m3 0.21 mg/m3 15.16 °C 81.95 % 1,005.13 mbar 2.26 m/s 244.87 Deg 6.24 µg/m3
2021-11-27 09:00 50.33 µg/m3 0.56 µg/m3 18.56 µg/m3 8.94 µg/m3 0.23 mg/m3 15.86 °C 75.38 % 1,005.53 mbar 3.75 m/s 218.33 Deg 32.55 µg/m3
2021-11-27 08:00 56.81 µg/m3 0.46 µg/m3 31.77 µg/m3 11.71 µg/m3 0.19 mg/m3 18.38 °C 60.98 % 1,004.70 mbar 2.87 m/s 181.47 Deg 10.24 µg/m3
2021-11-27 07:00 28.33 µg/m3 0.3 µg/m3 37.58 µg/m3 14.43 µg/m3 0.14 mg/m3 18.78 °C 59.51 % 1,004.47 mbar 3.21 m/s 182.89 Deg 6.33 µg/m3
2021-11-27 06:00 26.71 µg/m3 0.2 µg/m3 34.41 µg/m3 13.72 µg/m3 0.13 mg/m3 18.64 °C 61.58 % 1,004.72 mbar 3.5 m/s 190.39 Deg 1.48 µg/m3
2021-11-27 05:00 30.47 µg/m3 0.15 µg/m3 24.39 µg/m3 9.3 µg/m3 0.13 mg/m3 18.6 °C 62.11 % 1,004.89 mbar 3.4 m/s 197.53 Deg 2.12 µg/m3
2021-11-27 04:00 31.84 µg/m3 0.16 µg/m3 20.69 µg/m3 7.86 µg/m3 0.1 mg/m3 18.3 °C 64.17 % 1,005.34 mbar 2.98 m/s 191.68 Deg 1.03 µg/m3
2021-11-27 03:00 18.85 µg/m3 0.15 µg/m3 13.11 µg/m3 4.86 µg/m3 0.05 mg/m3 18.28 °C 65.36 % 1,006.29 mbar 3.41 m/s 196.88 Deg 0.35 µg/m3
2021-11-27 02:00 22.66 µg/m3 0.16 µg/m3 10.2 µg/m3 3.67 µg/m3 0.07 mg/m3 18.02 °C 63.42 % 1,007.03 mbar 3.29 m/s 198.67 Deg 0.58 µg/m3
2021-11-27 01:00 47.43 µg/m3 0.32 µg/m3 10.01 µg/m3 3.64 µg/m3 0.11 mg/m3 17.17 °C 62.4 % 1,007.49 mbar 2.39 m/s 188.88 Deg 3.65 µg/m3
2021-11-27 00:00 71.96 µg/m3 0.43 µg/m3 10.62 µg/m3 4.04 µg/m3 0.14 mg/m3 16.53 °C 66.4 % 1,007.68 mbar 2.01 m/s 195.38 Deg 9.6 µg/m3
2021-11-26 23:00 59.53 µg/m3 0.23 µg/m3 9.58 µg/m3 3.5 µg/m3 0.13 mg/m3 16.85 °C 63.38 % 1,007.99 mbar 2.74 m/s 192.15 Deg 5.33 µg/m3
2021-11-26 22:00 37.92 µg/m3 0.07 µg/m3 10.36 µg/m3 3.76 µg/m3 0.15 mg/m3 17.12 °C 62.73 % 1,008.10 mbar 3.56 m/s 205.19 Deg 0.96 µg/m3
2021-11-26 21:00 23.43 µg/m3 0.14 µg/m3 9.2 µg/m3 3.24 µg/m3 0.13 mg/m3 17.55 °C 56.25 % 1,008.07 mbar 5.4 m/s 211.09 Deg 0.79 µg/m3
2021-11-26 20:00 33.05 µg/m3 0.08 µg/m3 9.43 µg/m3 3.38 µg/m3 0.16 mg/m3 17.46 °C 58.63 % 1,007.92 mbar 5.6 m/s 211.74 Deg 2.49 µg/m3
2021-11-26 19:00 28.89 µg/m3 0.06 µg/m3 9.88 µg/m3 3.45 µg/m3 0.19 mg/m3 17.39 °C 59.91 % 1,007.89 mbar 5.6 m/s 210.46 Deg 2.12 µg/m3
2021-11-26 18:00 38.55 µg/m3 0.06 µg/m3 10.14 µg/m3 3.52 µg/m3 0.2 mg/m3 17.44 °C 58.02 % 1,007.47 mbar 5.91 m/s 214.61 Deg 2.07 µg/m3
2021-11-26 17:00 26.78 µg/m3 0.09 µg/m3 9.89 µg/m3 3.48 µg/m3 0.2 mg/m3 17.7 °C 57.58 % 1,006.92 mbar 6.25 m/s 211.45 Deg 2.22 µg/m3
2021-11-26 16:00 19.67 µg/m3 0.1 µg/m3 9.98 µg/m3 3.31 µg/m3 0.2 mg/m3 18.31 °C 54.64 % 1,006.51 mbar 6.82 m/s 222.05 Deg 3.7 µg/m3
2021-11-26 15:00 19.63 µg/m3 0.29 µg/m3 9.65 µg/m3 3.15 µg/m3 0.23 mg/m3 18.7 °C 53.1 % 1,006.23 mbar 7.49 m/s 209.06 Deg 3.78 µg/m3
2021-11-26 14:00 16.84 µg/m3 0.25 µg/m3 9.32 µg/m3 3.13 µg/m3 0.27 mg/m3 18.98 °C 53.92 % 1,006.40 mbar 8.61 m/s 219.62 Deg 5.95 µg/m3
2021-11-26 13:00 14.17 µg/m3 -0 µg/m3 10.51 µg/m3 3.76 µg/m3 0.34 mg/m3 19.29 °C 58.3 % 1,006.12 mbar 8.91 m/s 213.3 Deg 2.25 µg/m3
2021-11-26 12:00 23.73 µg/m3 -0.01 µg/m3 11.65 µg/m3 4.76 µg/m3 0.44 mg/m3 19.27 °C 65.74 % 1,006.39 mbar 8.66 m/s 202.28 Deg 5.94 µg/m3
2021-11-26 11:00 25.97 µg/m3 0.06 µg/m3 12.39 µg/m3 5.39 µg/m3 0.6 mg/m3 19.11 °C 64.72 % 1,006.48 mbar 7.52 m/s 197.13 Deg 5.24 µg/m3
2021-11-26 10:00 56.43 µg/m3 1.13 µg/m3 24.21 µg/m3 10.48 µg/m3 1.38 mg/m3 18.12 °C 68.27 % 1,006.44 mbar 2.36 m/s 187.72 Deg 43.04 µg/m3
2021-11-26 09:00 15.94 µg/m3 2.01 µg/m3 31.56 µg/m3 15.41 µg/m3 3.57 mg/m3 16.42 °C 73.9 % 1,006.35 mbar 0.86 m/s 170.93 Deg 165.71 µg/m3
2021-11-25 20:00 0 µg/m3 0 µg/m3 12.06 µg/m3 5.67 µg/m3 0.16 mg/m3 18.08 °C 81.3 % 1,004.29 mbar 3.42 m/s 249.06 Deg 0 µg/m3
2021-11-25 19:00 0 µg/m3 0 µg/m3 15.92 µg/m3 8.05 µg/m3 0.31 mg/m3 18.76 °C 87.87 % 1,004.13 mbar 2.16 m/s 243.42 Deg 0 µg/m3
2021-11-25 18:00 0 µg/m3 0 µg/m3 13.96 µg/m3 6.55 µg/m3 0.33 mg/m3 19.46 °C 84.18 % 1,003.49 mbar 1.87 m/s 231.53 Deg 0 µg/m3
2021-11-25 17:00 0 µg/m3 0 µg/m3 15.9 µg/m3 7.67 µg/m3 0.34 mg/m3 20.07 °C 80.72 % 1,003.47 mbar 2.59 m/s 194.74 Deg 0 µg/m3
2021-11-25 16:00 0 µg/m3 0 µg/m3 15.06 µg/m3 7.36 µg/m3 0.24 mg/m3 20.73 °C 77.51 % 1,003.50 mbar 4.56 m/s 198.67 Deg 0 µg/m3
2021-11-25 15:00 0 µg/m3 0 µg/m3 16.02 µg/m3 7.94 µg/m3 0.2 mg/m3 20.84 °C 78.95 % 1,003.78 mbar 4.78 m/s 196.99 Deg 0 µg/m3
2021-11-25 14:00 0 µg/m3 0 µg/m3 20.21 µg/m3 10.13 µg/m3 0.21 mg/m3 20.3 °C 82.03 % 1,004.40 mbar 2.39 m/s 171.35 Deg 0 µg/m3
2021-11-25 13:00 0 µg/m3 0 µg/m3 15.89 µg/m3 8.06 µg/m3 0.27 mg/m3 17.99 °C 89.9 % 1,005.49 mbar 1.89 m/s 208.82 Deg 0 µg/m3
2021-11-25 12:00 0 µg/m3 0 µg/m3 12.55 µg/m3 5.9 µg/m3 0.19 mg/m3 16.35 °C 94.69 % 1,006.50 mbar 1.92 m/s 262.43 Deg 0 µg/m3
2021-11-25 11:00 0 µg/m3 0 µg/m3 22.84 µg/m3 11.24 µg/m3 0.18 mg/m3 17.55 °C 91.31 % 1,007.01 mbar 2.19 m/s 268.2 Deg 0 µg/m3
2021-11-25 10:00 0 µg/m3 0 µg/m3 15.71 µg/m3 7.64 µg/m3 0.25 mg/m3 18.18 °C 93.21 % 1,007.43 mbar 1.01 m/s 224.65 Deg 0 µg/m3
2021-11-25 09:00 0 µg/m3 0 µg/m3 13.76 µg/m3 6.44 µg/m3 0.28 mg/m3 17.2 °C 93.37 % 1,008.78 mbar 0.98 m/s 235.68 Deg 0 µg/m3
2021-11-25 08:00 0 µg/m3 0 µg/m3 14.11 µg/m3 6.89 µg/m3 0.13 mg/m3 17.51 °C 92.38 % 1,008.64 mbar 1.26 m/s 267.29 Deg 0 µg/m3
2021-11-25 07:00 0 µg/m3 0 µg/m3 12.93 µg/m3 5.86 µg/m3 -0.01 mg/m3 17.33 °C 90.18 % 1,009.06 mbar 0.8 m/s 218.67 Deg 0 µg/m3
2021-11-25 06:00 0 µg/m3 0 µg/m3 11.7 µg/m3 5.29 µg/m3 -0.01 mg/m3 17.99 °C 84.29 % 1,009.27 mbar 0.66 m/s 295.86 Deg 0 µg/m3
2021-11-25 05:00 0 µg/m3 0 µg/m3 10.74 µg/m3 4.72 µg/m3 -0.01 mg/m3 17.51 °C 81.32 % 1,009.87 mbar 0.4 m/s 104.98 Deg 0 µg/m3
2021-11-25 04:00 0 µg/m3 0 µg/m3 12.12 µg/m3 5.69 µg/m3 -0 mg/m3 16.86 °C 82.47 % 1,010.64 mbar 0.21 m/s 122.95 Deg 0 µg/m3
2021-11-25 03:00 0 µg/m3 0 µg/m3 14.19 µg/m3 7.26 µg/m3 0.04 mg/m3 16.45 °C 85.89 % 1,011.28 mbar 0.1 m/s 309.35 Deg 0 µg/m3
2021-11-25 02:00 0 µg/m3 0 µg/m3 20.16 µg/m3 10.97 µg/m3 0.21 mg/m3 15.57 °C 89.79 % 1,011.69 mbar 0.49 m/s 210.58 Deg 0 µg/m3
2021-11-25 01:00 0 µg/m3 0 µg/m3 24.63 µg/m3 13.86 µg/m3 0.36 mg/m3 14.8 °C 90.39 % 1,012.34 mbar 1.46 m/s 199.65 Deg 0 µg/m3
2021-11-25 00:00 0 µg/m3 0 µg/m3 27.99 µg/m3 15.75 µg/m3 0.45 mg/m3 14.98 °C 89.91 % 1,012.94 mbar 1.59 m/s 201.2 Deg 0 µg/m3
2021-11-24 23:00 0 µg/m3 0 µg/m3 29.37 µg/m3 15.63 µg/m3 0.49 mg/m3 15.64 °C 88.13 % 1,013.40 mbar 0.87 m/s 197.14 Deg 0 µg/m3
2021-11-24 22:00 0 µg/m3 0 µg/m3 31.67 µg/m3 17.02 µg/m3 0.59 mg/m3 15.75 °C 87.33 % 1,013.66 mbar 1.8 m/s 202.91 Deg 0 µg/m3
2021-11-24 21:00 0 µg/m3 0 µg/m3 32.65 µg/m3 16.49 µg/m3 0.67 mg/m3 16.5 °C 84.01 % 1,013.79 mbar 1.21 m/s 198.4 Deg 0 µg/m3
2021-11-24 20:00 0 µg/m3 0 µg/m3 25.88 µg/m3 13.06 µg/m3 0.56 mg/m3 17.42 °C 78.96 % 1,013.81 mbar 1.23 m/s 241.84 Deg 0 µg/m3
2021-11-24 19:00 0 µg/m3 0 µg/m3 20.03 µg/m3 9.13 µg/m3 0.34 mg/m3 17.91 °C 74.17 % 1,013.60 mbar 0.06 m/s 254.33 Deg 0 µg/m3
2021-11-24 18:00 0 µg/m3 0 µg/m3 17.57 µg/m3 7.78 µg/m3 0.11 mg/m3 18.23 °C 72.44 % 1,013.48 mbar 0 m/s 298.82 Deg 0 µg/m3
2021-11-24 17:00 0 µg/m3 0 µg/m3 15.27 µg/m3 6.04 µg/m3 0.1 mg/m3 18.71 °C 71.19 % 1,013.37 mbar 0.09 m/s 255.17 Deg 0 µg/m3
2021-11-24 16:00 0 µg/m3 0 µg/m3 11.34 µg/m3 4.27 µg/m3 0.1 mg/m3 19.31 °C 69.62 % 1,013.44 mbar 0.65 m/s 174.36 Deg 0 µg/m3
2021-11-24 15:00 0 µg/m3 0 µg/m3 10.68 µg/m3 4.03 µg/m3 0.03 mg/m3 19.87 °C 67.03 % 1,013.47 mbar 0.73 m/s 84.28 Deg 0 µg/m3
2021-11-24 14:00 0 µg/m3 0 µg/m3 13.18 µg/m3 4.6 µg/m3 0.07 mg/m3 19.58 °C 68.55 % 1,013.70 mbar 0.65 m/s 275.4 Deg 0 µg/m3
2021-11-24 13:00 0 µg/m3 0 µg/m3 11.82 µg/m3 4.56 µg/m3 0.2 mg/m3 19.1 °C 71.55 % 1,014.06 mbar 0.79 m/s 276.5 Deg 0 µg/m3
2021-11-24 12:00 0 µg/m3 0 µg/m3 15.3 µg/m3 5.41 µg/m3 0.17 mg/m3 19.14 °C 71.6 % 1,014.54 mbar 0.73 m/s 265.6 Deg 0 µg/m3
2021-11-24 11:00 0 µg/m3 0 µg/m3 15.52 µg/m3 5.48 µg/m3 0.13 mg/m3 18.97 °C 69.93 % 1,015.12 mbar 1.19 m/s 278.85 Deg 0 µg/m3
2021-11-24 10:00 0 µg/m3 0 µg/m3 43.16 µg/m3 21.98 µg/m3 0.73 mg/m3 17.47 °C 78.62 % 1,015.43 mbar 1.24 m/s 200.12 Deg 0 µg/m3
2021-11-24 09:00 0 µg/m3 0 µg/m3 49.17 µg/m3 26.64 µg/m3 0.87 mg/m3 15.33 °C 86.92 % 1,015.24 mbar 1.82 m/s 197.53 Deg 0 µg/m3
2021-11-24 08:00 0 µg/m3 0 µg/m3 36.18 µg/m3 20.73 µg/m3 0.59 mg/m3 14.36 °C 90.51 % 1,015.00 mbar 2.1 m/s 201.77 Deg 0 µg/m3
2021-11-24 07:00 0 µg/m3 0 µg/m3 28.43 µg/m3 16.6 µg/m3 0.49 mg/m3 14.25 °C 90.39 % 1,014.65 mbar 2.19 m/s 199.66 Deg 0 µg/m3
2021-11-24 06:00 0 µg/m3 0 µg/m3 21.88 µg/m3 12.31 µg/m3 0.32 mg/m3 14.14 °C 91.58 % 1,014.55 mbar 2.61 m/s 199.69 Deg 0 µg/m3
2021-11-24 05:00 0 µg/m3 0 µg/m3 19.4 µg/m3 10.13 µg/m3 0.25 mg/m3 14.26 °C 91.63 % 1,014.21 mbar 2.4 m/s 202.06 Deg 0 µg/m3
2021-11-24 04:00 0 µg/m3 0 µg/m3 17.5 µg/m3 9.21 µg/m3 0.25 mg/m3 14.55 °C 90.89 % 1,014.26 mbar 2.15 m/s 203.36 Deg 0 µg/m3
2021-11-24 03:00 0 µg/m3 0 µg/m3 18.5 µg/m3 10.06 µg/m3 0.24 mg/m3 14.72 °C 89.01 % 1,014.32 mbar 2.07 m/s 194.52 Deg 0 µg/m3
2021-11-24 02:00 0 µg/m3 0 µg/m3 17.9 µg/m3 9.52 µg/m3 0.23 mg/m3 14.93 °C 87.69 % 1,014.32 mbar 2.5 m/s 197.68 Deg 0 µg/m3
2021-11-24 01:00 0 µg/m3 0 µg/m3 20.98 µg/m3 11.79 µg/m3 0.32 mg/m3 15.38 °C 85.94 % 1,014.35 mbar 1.82 m/s 197.19 Deg 0 µg/m3
2021-11-24 00:00 0 µg/m3 0 µg/m3 19.11 µg/m3 10.3 µg/m3 0.34 mg/m3 15.76 °C 85.41 % 1,014.58 mbar 1.63 m/s 200.63 Deg 0 µg/m3
2021-11-23 23:00 0 µg/m3 0 µg/m3 24.01 µg/m3 13.38 µg/m3 0.4 mg/m3 15.86 °C 85.89 % 1,014.78 mbar 2.46 m/s 202.6 Deg 0 µg/m3
2021-11-23 22:00 0 µg/m3 0 µg/m3 21.22 µg/m3 11.57 µg/m3 0.4 mg/m3 16.5 °C 83.6 % 1,014.49 mbar 2.06 m/s 202.05 Deg 0 µg/m3
2021-11-23 21:00 0 µg/m3 0 µg/m3 21.96 µg/m3 11.53 µg/m3 0.51 mg/m3 17.47 °C 80.19 % 1,014.15 mbar 1.97 m/s 201.97 Deg 0 µg/m3
2021-11-23 20:00 0 µg/m3 0 µg/m3 14.69 µg/m3 6.72 µg/m3 0.33 mg/m3 18.38 °C 74.91 % 1,013.87 mbar 1.45 m/s 243.02 Deg 0 µg/m3
2021-11-23 19:00 0 µg/m3 0 µg/m3 13.72 µg/m3 6.19 µg/m3 0.29 mg/m3 18.53 °C 75.06 % 1,013.51 mbar 1.87 m/s 270.72 Deg 0 µg/m3
2021-11-23 18:00 0 µg/m3 0 µg/m3 14.34 µg/m3 6.38 µg/m3 0.33 mg/m3 18.83 °C 74.98 % 1,012.95 mbar 2.16 m/s 274.65 Deg 0 µg/m3
2021-11-23 17:00 0 µg/m3 0 µg/m3 13.94 µg/m3 5.97 µg/m3 0.33 mg/m3 19.51 °C 74.27 % 1,012.41 mbar 2.28 m/s 284.56 Deg 0 µg/m3
2021-11-23 16:00 0 µg/m3 0 µg/m3 13.12 µg/m3 5.56 µg/m3 0.31 mg/m3 20.56 °C 66.5 % 1,011.97 mbar 3.49 m/s 254.49 Deg 0 µg/m3
2021-11-23 15:00 0 µg/m3 0 µg/m3 14.14 µg/m3 6.09 µg/m3 0.35 mg/m3 20.95 °C 66.47 % 1,011.73 mbar 3.65 m/s 249.8 Deg 0 µg/m3
2021-11-23 14:00 0 µg/m3 0 µg/m3 15.18 µg/m3 6.47 µg/m3 0.38 mg/m3 20.93 °C 66.88 % 1,011.67 mbar 4.15 m/s 248.67 Deg 0 µg/m3
2021-11-23 13:00 0 µg/m3 0 µg/m3 13.66 µg/m3 6.26 µg/m3 0.49 mg/m3 20.92 °C 68.93 % 1,011.86 mbar 5.1 m/s 211.95 Deg 0 µg/m3
2021-11-23 12:00 0 µg/m3 0 µg/m3 13.53 µg/m3 6.3 µg/m3 0.58 mg/m3 20.87 °C 71.32 % 1,012.15 mbar 5.77 m/s 208.07 Deg 0 µg/m3
2021-11-23 11:00 0 µg/m3 0 µg/m3 13.77 µg/m3 6.31 µg/m3 0.78 mg/m3 20.69 °C 71.3 % 1,012.30 mbar 5.54 m/s 199.07 Deg 0 µg/m3
2021-11-23 10:00 68.42 µg/m3 0 µg/m3 26.89 µg/m3 9.34 µg/m3 1.37 mg/m3 20.13 °C 73.34 % 1,012.09 mbar 3.98 m/s 193.6 Deg 69.37 µg/m3
2021-11-23 09:00 102.59 µg/m3 0 µg/m3 42.52 µg/m3 22.32 µg/m3 0 mg/m3 16.96 °C 84.72 % 1,011.74 mbar 1.32 m/s 194.69 Deg 246.85 µg/m3
2021-11-23 08:00 92.7 µg/m3 0 µg/m3 35.57 µg/m3 18.6 µg/m3 0 mg/m3 15.99 °C 87.92 % 1,011.49 mbar 1.65 m/s 200.28 Deg 263.36 µg/m3
2021-11-23 07:00 81.1 µg/m3 0 µg/m3 24.34 µg/m3 12.63 µg/m3 0 mg/m3 16.31 °C 85.89 % 1,011.03 mbar 0.56 m/s 201.35 Deg 163.87 µg/m3
2021-11-23 06:00 66.99 µg/m3 0 µg/m3 20.92 µg/m3 10.56 µg/m3 0 mg/m3 16.26 °C 83.76 % 1,010.89 mbar 0.27 m/s 159.65 Deg 96.89 µg/m3
2021-11-23 05:00 56.19 µg/m3 0 µg/m3 18.85 µg/m3 9.43 µg/m3 0 mg/m3 16.24 °C 83.13 % 1,010.85 mbar 1.09 m/s 218.63 Deg 29.82 µg/m3
2021-11-23 04:00 40.39 µg/m3 0 µg/m3 16.14 µg/m3 8.55 µg/m3 0 mg/m3 16.13 °C 83.1 % 1,010.77 mbar 2.8 m/s 201.78 Deg 11.69 µg/m3
2021-11-23 03:00 42.36 µg/m3 0 µg/m3 16.38 µg/m3 8.65 µg/m3 0 mg/m3 16.27 °C 83.8 % 1,011.01 mbar 1.98 m/s 201.41 Deg 5.87 µg/m3
2021-11-23 02:00 61.59 µg/m3 0 µg/m3 20.34 µg/m3 11.55 µg/m3 0 mg/m3 16.42 °C 84.27 % 1,011.24 mbar 1.47 m/s 192.98 Deg 53.34 µg/m3

It is to be noted that the data is provisional and subject to quality assurance procedures. For validated data kindly refer your request to contact.air@era.org.mt